Weather History for Lebanon, NH

Change the Weather History Date:

Thursday, April 10, 2014

  Actual Average Record
Temperature  
Mean Temperature 42 °F -  
Max Temperature 63 °F 50 °F 80 °F (1945)
Min Temperature 21 °F 30 °F 15 °F (1939)
Degree Days  
Heating Degree Days 23    
Moisture  
Dew Point 20 °F    
Average Humidity 43    
Maximum Humidity 81    
Minimum Humidity 17    
Precipitation  
Precipitation 0.00 in - - ()
Sea Level Pressure  
Sea Level Pressure 29.97 in    
Wind  
Wind Speed 6 mph (SSW)    
Max Wind Speed 20 mph    
Max Gust Speed 29 mph    
Visibility 10 miles    
Events      
Averages and records for this station are not official NWS values.
T = Trace of Precipitation, MM = Missing Value Source: NWS Daily Summary

Daily Weather History Graph

Daily Weather History Graph

Search for Another Location

Airport:

Trip Planner

Search our weather history database for the weather conditions in past years. The results will help you decide how hot, cold, wet, or windy it might be!

Date:

Astronomy

Apr. 10, 2014 Rise Set
Actual Time 6:15 AM EDT 7:26 PM EDT
Civil Twilight 5:45 AM EDT 7:56 PM EDT
Nautical Twilight 5:10 AM EDT 8:31 PM EDT
Astronomical Twilight 4:33 AM EDT 9:09 PM EDT
Moon 3:00 PM EDT (4/10) 3:44 AM EDT (4/10)
Length of Visible Light 14h 10m
Length of Day
13h 11m
Waxing Gibbous, 79% of the Moon is Illuminated
Apr 10
Waxing Gibbous
Apr 15
Full
Apr 22
Last Quarter
Apr 29
New
May 6
First Quarter

Hourly Weather History & Observations

Time (EDT) Temp. Dew Point Humidity Pressure Visibility Wind Dir Wind Speed Gust Speed Precip Events Conditions
12:53 AM 25.0 °F 17.1 °F 72% 29.99 in 10.0 mi Calm Calm - N/A   Clear
1:53 AM 24.1 °F 16.0 °F 71% 29.99 in 10.0 mi Calm Calm - N/A   Clear
3:53 AM 21.9 °F 16.0 °F 78% 30.01 in 10.0 mi Calm Calm - N/A   Clear
4:53 AM 21.0 °F 16.0 °F 81% 30.03 in 10.0 mi Calm Calm - N/A   Clear
5:53 AM 21.0 °F 15.1 °F 78% 30.06 in 10.0 mi Calm Calm - N/A   Clear
6:53 AM 23.0 °F 17.1 °F 78% 30.08 in 10.0 mi Calm Calm - N/A   Clear
7:53 AM 28.9 °F 19.9 °F 69% 30.10 in 10.0 mi Calm Calm - N/A   Clear
8:53 AM 36.0 °F 21.0 °F 55% 30.10 in 10.0 mi Calm Calm - N/A   Clear
10:53 AM 48.0 °F 21.0 °F 34% 30.08 in 10.0 mi South 10.4 mph 20.7 mph N/A   Clear
11:53 AM 52.0 °F 21.0 °F 30% 30.04 in 10.0 mi SSW 12.7 mph 19.6 mph N/A   Clear
12:53 PM 55.0 °F 21.9 °F 28% 30.01 in 10.0 mi South 12.7 mph 23.0 mph N/A   Clear
1:53 PM 59.0 °F 16.0 °F 19% 29.98 in 10.0 mi SW 12.7 mph 24.2 mph N/A   Clear
2:53 PM 62.1 °F 16.0 °F 17% 29.95 in 10.0 mi SSW 12.7 mph 24.2 mph N/A   Clear
3:11 PM 62.1 °F 16.0 °F 17% 29.92 in 10.0 mi SSW 12.7 mph 24.2 mph N/A   Clear
3:53 PM 63.0 °F 19.0 °F 18% 29.91 in 10.0 mi South 18.4 mph 28.8 mph N/A   Clear
4:53 PM 63.0 °F 19.9 °F 19% 29.88 in 10.0 mi South 19.6 mph 27.6 mph N/A   Clear
5:53 PM 62.1 °F 21.9 °F 21% 29.87 in 10.0 mi South 18.4 mph 26.5 mph N/A   Clear
6:53 PM 57.9 °F 24.1 °F 27% 29.88 in 10.0 mi South 15.0 mph 25.3 mph N/A   Clear
7:53 PM 55.9 °F 24.1 °F 29% 29.88 in 10.0 mi South 19.6 mph 25.3 mph N/A   Clear
8:53 PM 52.0 °F 24.1 °F 34% 29.89 in 10.0 mi South 17.3 mph 26.5 mph N/A   Clear
9:53 PM 51.1 °F 23.0 °F 33% 29.90 in 10.0 mi South 16.1 mph 25.3 mph N/A   Clear
10:53 PM 50.0 °F 24.1 °F 36% 29.89 in 10.0 mi South 16.1 mph 23.0 mph N/A   Overcast
11:53 PM 48.9 °F 26.1 °F 41% 29.88 in 10.0 mi South 12.7 mph - N/A   Mostly Cloudy